Time,TemperatureF,DewpointF,PressureIn,WindDirection,WindDirectionDegrees,WindSpeedMPH,WindSpeedGustMPH,Humidity,HourlyPrecipIn,Conditions,Clouds,dailyrainin,SoftwareType,DateUTC
2013-12-13 00:02:00,51.0,-99.9,30.20,East,88,3.0,4.0,-999,-99.99,,,-99.99,,2013-12-13 08:02:00,
2013-12-13 00:22:00,51.0,-99.9,30.21,East,98,2.0,4.0,-999,-99.99,,,-99.99,,2013-12-13 08:22:00,
2013-12-13 00:32:00,51.0,-99.9,30.21,East,98,2.0,4.0,-999,-99.99,,,-99.99,,2013-12-13 08:32:00,
2013-12-13 00:52:00,50.0,-99.9,30.19,NNE,31,1.0,2.0,-999,-99.99,,,-99.99,,2013-12-13 08:52:00,
2013-12-13 01:22:00,49.0,-99.9,30.18,East,82,1.0,2.0,-999,-99.99,,,-99.99,,2013-12-13 09:22:00,
2013-12-13 01:30:00,49.0,-99.9,30.16,East,90,0.0,1.0,-999,-99.99,,,-99.99,,2013-12-13 09:30:00,
2013-12-13 01:54:00,49.0,-99.9,30.16,East,90,0.0,1.0,-999,-99.99,,,-99.99,,2013-12-13 09:54:00,
2013-12-13 02:03:00,49.0,-99.9,30.16,East,90,0.0,1.0,-999,-99.99,,,-99.99,,2013-12-13 10:03:00,
2013-12-13 02:12:00,49.0,-99.9,30.16,East,90,0.0,1.0,-999,-99.99,,,-99.99,,2013-12-13 10:12:00,
2013-12-13 02:23:00,49.0,-99.9,30.16,East,90,0.0,1.0,-999,-99.99,,,-99.99,,2013-12-13 10:23:00,
2013-12-13 04:53:00,48.0,-99.9,30.20,South,183,1.0,1.0,-999,-99.99,,,-99.99,,2013-12-13 12:53:00,
2013-12-13 05:00:00,46.0,-99.9,30.17,WSW,246,0.0,1.0,-999,-99.99,,,-99.99,,2013-12-13 13:00:00,
2013-12-13 05:22:00,46.0,-99.9,30.17,WSW,246,0.0,1.0,-999,-99.99,,,-99.99,,2013-12-13 13:22:00,
2013-12-13 05:32:00,46.0,-99.9,30.17,WSW,246,0.0,1.0,-999,-99.99,,,-99.99,,2013-12-13 13:32:00,
2013-12-13 05:42:00,46.0,-99.9,30.17,WSW,246,0.0,1.0,-999,-99.99,,,-99.99,,2013-12-13 13:42:00,
2013-12-13 05:52:00,46.0,-99.9,30.17,WSW,246,0.0,1.0,-999,-99.99,,,-99.99,,2013-12-13 13:52:00,
2013-12-13 06:53:00,46.0,-99.9,30.20,NNW,346,0.0,1.0,-999,-99.99,,,-99.99,,2013-12-13 14:53:00,
2013-12-13 07:10:00,45.0,-99.9,30.20,NNE,31,1.0,2.0,-999,-99.99,,,-99.99,,2013-12-13 15:10:00,
2013-12-13 07:12:00,45.0,-99.9,30.22,ENE,73,2.0,4.0,-999,-99.99,,,-99.99,,2013-12-13 15:12:00,
2013-12-13 07:22:00,45.0,-99.9,30.22,ENE,73,2.0,4.0,-999,-99.99,,,-99.99,,2013-12-13 15:22:00,
2013-12-13 07:44:00,45.0,-99.9,30.20,NNE,31,1.0,2.0,-999,-99.99,,,-99.99,,2013-12-13 15:44:00,
2013-12-13 07:54:00,45.0,-99.9,30.20,NNE,31,1.0,2.0,-999,-99.99,,,-99.99,,2013-12-13 15:54:00,
2013-12-13 08:03:00,45.0,-99.9,30.20,NNE,31,1.0,2.0,-999,-99.99,,,-99.99,,2013-12-13 16:03:00,
2013-12-13 09:22:00,49.0,-99.9,30.25,East,84,1.0,5.0,-999,-99.99,,,-99.99,,2013-12-13 17:22:00,
2013-12-13 09:43:00,49.0,-99.9,30.25,NE,37,2.0,3.0,-999,-99.99,,,-99.99,,2013-12-13 17:43:00,
2013-12-13 09:52:00,49.0,-99.9,30.25,NE,37,2.0,3.0,-999,-99.99,,,-99.99,,2013-12-13 17:52:00,
2013-12-13 10:22:00,52.0,-99.9,30.24,WNW,303,1.0,3.0,-999,-99.99,,,-99.99,,2013-12-13 18:22:00,
2013-12-13 10:33:00,52.0,-99.9,30.24,WNW,303,1.0,3.0,-999,-99.99,,,-99.99,,2013-12-13 18:33:00,
2013-12-13 10:42:00,52.0,-99.9,30.24,WNW,303,1.0,3.0,-999,-99.99,,,-99.99,,2013-12-13 18:42:00,
2013-12-13 10:52:00,52.0,-99.9,30.24,WNW,303,1.0,3.0,-999,-99.99,,,-99.99,,2013-12-13 18:52:00,
2013-12-13 11:12:00,55.0,-99.9,30.22,SW,219,3.0,7.0,-999,-99.99,,,-99.99,,2013-12-13 19:12:00,
2013-12-13 11:22:00,55.0,-99.9,30.22,SW,219,3.0,7.0,-999,-99.99,,,-99.99,,2013-12-13 19:22:00,
2013-12-13 11:52:00,57.0,-99.9,30.22,ENE,76,2.0,3.0,-999,-99.99,,,-99.99,,2013-12-13 19:52:00,
2013-12-13 12:22:00,57.0,-99.9,30.19,WNW,291,1.0,4.0,-999,-99.99,,,-99.99,,2013-12-13 20:22:00,
2013-12-13 12:50:00,60.0,-99.9,30.17,East,93,3.0,5.0,-999,-99.99,,,-99.99,,2013-12-13 20:50:00,
2013-12-13 12:53:00,58.0,-99.9,30.20,SE,146,2.0,4.0,-999,-99.99,,,-99.99,,2013-12-13 20:53:00,
2013-12-13 13:11:00,60.0,-99.9,30.17,East,93,3.0,5.0,-999,-99.99,,,-99.99,,2013-12-13 21:11:00,
2013-12-13 13:22:00,60.0,-99.9,30.17,East,93,3.0,5.0,-999,-99.99,,,-99.99,,2013-12-13 21:22:00,
2013-12-13 13:34:00,60.0,-99.9,30.17,East,93,3.0,5.0,-999,-99.99,,,-99.99,,2013-12-13 21:34:00,
2013-12-13 13:50:00,62.0,-99.9,30.15,SW,231,1.0,5.0,-999,-99.99,,,-99.99,,2013-12-13 21:50:00,
2013-12-13 14:13:00,62.0,-99.9,30.15,SW,231,1.0,5.0,-999,-99.99,,,-99.99,,2013-12-13 22:13:00,
2013-12-13 14:23:00,62.0,-99.9,30.15,SW,231,1.0,5.0,-999,-99.99,,,-99.99,,2013-12-13 22:23:00,
2013-12-13 14:33:00,62.0,-99.9,30.15,SW,231,1.0,5.0,-999,-99.99,,,-99.99,,2013-12-13 22:33:00,
2013-12-13 15:53:00,63.0,-99.9,30.17,SW,230,3.0,6.0,-999,-99.99,,,-99.99,,2013-12-13 23:53:00,
2013-12-13 16:02:00,63.0,-99.9,30.17,SW,230,3.0,6.0,-999,-99.99,,,-99.99,,2013-12-14 00:02:00,
2013-12-13 16:11:00,63.0,-99.9,30.17,SW,230,3.0,6.0,-999,-99.99,,,-99.99,,2013-12-14 00:11:00,
2013-12-13 16:22:00,63.0,-99.9,30.17,SW,230,3.0,6.0,-999,-99.99,,,-99.99,,2013-12-14 00:22:00,
2013-12-13 16:42:00,63.0,-99.9,30.17,SW,233,3.0,6.0,-999,-99.99,,,-99.99,,2013-12-14 00:42:00,
2013-12-13 16:52:00,63.0,-99.9,30.17,SW,233,3.0,6.0,-999,-99.99,,,-99.99,,2013-12-14 00:52:00,
2013-12-13 17:11:00,60.0,-99.9,30.19,SW,216,2.0,5.0,-999,-99.99,,,-99.99,,2013-12-14 01:11:00,
2013-12-13 17:22:00,60.0,-99.9,30.19,SW,216,2.0,5.0,-999,-99.99,,,-99.99,,2013-12-14 01:22:00,
2013-12-13 17:32:00,60.0,-99.9,30.19,SW,216,2.0,5.0,-999,-99.99,,,-99.99,,2013-12-14 01:32:00,
2013-12-13 17:52:00,58.0,-99.9,30.20,SSW,200,2.0,6.0,-999,-99.99,,,-99.99,,2013-12-14 01:52:00,
2013-12-13 18:22:00,57.0,-99.9,30.19,SW,231,1.0,2.0,-999,-99.99,,,-99.99,,2013-12-14 02:22:00,
2013-12-13 18:42:00,57.0,-99.9,30.19,WSW,248,0.0,2.0,-999,-99.99,,,-99.99,,2013-12-14 02:42:00,
2013-12-13 18:52:00,57.0,-99.9,30.19,WSW,248,0.0,2.0,-999,-99.99,,,-99.99,,2013-12-14 02:52:00,
2013-12-13 19:02:00,57.0,-99.9,30.19,WSW,248,0.0,2.0,-999,-99.99,,,-99.99,,2013-12-14 03:02:00,
2013-12-13 19:22:00,55.0,-99.9,30.22,WNW,293,0.0,2.0,-999,-99.99,,,-99.99,,2013-12-14 03:22:00,
2013-12-13 19:34:00,55.0,-99.9,30.22,WNW,293,0.0,2.0,-999,-99.99,,,-99.99,,2013-12-14 03:34:00,
2013-12-13 19:54:00,54.0,-99.9,30.22,East,90,0.0,6.0,-999,-99.99,,,-99.99,,2013-12-14 03:54:00,
2013-12-13 20:23:00,54.0,-99.9,30.25,NW,319,0.0,1.0,-999,-99.99,,,-99.99,,2013-12-14 04:23:00,
2013-12-13 20:53:00,53.0,-99.9,30.22,ENE,72,1.0,1.0,-999,-99.99,,,-99.99,,2013-12-14 04:53:00,
2013-12-13 21:03:00,53.0,-99.9,30.22,ENE,72,1.0,1.0,-999,-99.99,,,-99.99,,2013-12-14 05:03:00,
2013-12-13 21:12:00,53.0,-99.9,30.22,ENE,72,1.0,1.0,-999,-99.99,,,-99.99,,2013-12-14 05:12:00,
2013-12-13 21:20:00,52.0,-99.9,30.25,West,269,0.0,1.0,-999,-99.99,,,-99.99,,2013-12-14 05:20:00,
2013-12-13 21:22:00,53.0,-99.9,30.22,ENE,72,1.0,1.0,-999,-99.99,,,-99.99,,2013-12-14 05:22:00,
2013-12-13 21:42:00,52.0,-99.9,30.25,West,269,0.0,1.0,-999,-99.99,,,-99.99,,2013-12-14 05:42:00,
2013-12-13 21:53:00,52.0,-99.9,30.25,West,269,0.0,1.0,-999,-99.99,,,-99.99,,2013-12-14 05:53:00,
2013-12-13 22:03:00,52.0,-99.9,30.25,West,269,0.0,1.0,-999,-99.99,,,-99.99,,2013-12-14 06:03:00,
2013-12-13 22:12:00,52.0,-99.9,30.25,West,269,0.0,1.0,-999,-99.99,,,-99.99,,2013-12-14 06:12:00,
2013-12-13 22:52:00,51.0,-99.9,30.24,NE,51,1.0,2.0,-999,-99.99,,,-99.99,,2013-12-14 06:52:00,
2013-12-13 23:23:00,51.0,-99.9,30.24,West,277,1.0,3.0,-999,-99.99,,,-99.99,,2013-12-14 07:23:00,
2013-12-13 23:52:00,50.0,-99.9,30.23,SSE,158,0.0,2.0,-999,-99.99,,,-99.99,,2013-12-14 07:52:00,